Regional Weather Roundup
Issued by NWS Boston, MA

Home | Current Version | Previous Version | Text Only | Print | Product List | Glossary On
Versions: 1 2 3 4 5 6 7 8 9 10 11 12 13 14 15 16 17 18 19 20 21 22 23 24 25 26 27 28 29 30 31 32 33 34 35 36 37 38 39 40 41 42 43 44 45 46
000
ASUS41 KBOX 312310
RWRBOX

REGIONAL WEATHER ROUNDUP
NATIONAL WEATHER SERVICE TAUNTON MA
700 PM EDT FRI JUL 31 2015

NOTE:  "FAIR" INDICATES FEW OR NO CLOUDS BELOW 12,000 FEET WITH NO
SIGNIFICANT WEATHER AND/OR OBSTRUCTIONS TO VISIBILITY.  THE FOLLOWING
OBSERVATION LOCATIONS DO NOT REPORT PRESENT WEATHER...PROVINCETOWN...
SMITHFIELD...BLOCK ISLAND...KEENE...AND OXFORD.

MAZALL-010000-
EASTERN MASSACHUSETTS

CITY           SKY/WX    TMP DP  RH WIND       PRES   REMARKS
BOSTON         MOSUNNY   84  53  34 W13G22    29.75S
BEVERLY        SUNNY     83  54  36 W7        29.75R
LAWRENCE       SUNNY     83  56  39 W10       29.77R
BEDFORD        MOSUNNY   81  53  37 W10       29.75R
BLUE HILL        N/A     80  53  39 W13G18    29.78R
NORWOOD        SUNNY     83  54  36 W7        29.76R
MARSHFIELD     SUNNY     84  55  37 W7        29.76R
PLYMOUTH       MOSUNNY   84  56  38 W8        29.76S
TAUNTON        SUNNY     84  57  39 W3        29.75S
NEW BEDFORD    SUNNY     80  62  54 SW8       29.76R
$$

MAZALL-010000-
CAPE COD AND THE ISLANDS

CITY           SKY/WX    TMP DP  RH WIND       PRES   REMARKS
FALMOUTH       CLEAR     79  63  57 SW13G21   29.77S
HYANNIS        CLEAR     83  57  41 SW16      29.75S
CHATHAM        CLEAR     79  64  60 SW8       29.77S
PROVINCETOWN   CLEAR     81  59  47 W5        29.75S
NANTUCKET      CLEAR     75  70  84 SW10      29.78S
MARTHAS VNYRD  CLEAR     80  59  48 VRB7      29.78S
$$

MAZALL-010000-
CENTRAL AND WESTERN MASSACHUSETTS

CITY           SKY/WX    TMP DP  RH WIND       PRES   REMARKS
WORCESTER      SUNNY     77  53  43 W9        29.82S
FITCHBURG      SUNNY     82  55  39 W6        29.79R
ORANGE         SUNNY     81  55  40 CALM      29.79S
SPRINGFIELD    SUNNY     83  53  36 NW8       29.78S
WESTFIELD      SUNNY     83  53  35 W5        29.79S
NORTH ADAMS    SUNNY     78  56  46 W5        29.80S
PITTSFIELD     SUNNY     77  53  43 W7        29.82S
$$

RIZALL-010000-
RHODE ISLAND

CITY           SKY/WX    TMP DP  RH WIND       PRES   REMARKS
PROVIDENCE     MOSUNNY   85  56  37 W9        29.77S
NEWPORT        SUNNY     79  64  60 VRB3      29.77S
BLOCK ISLAND     N/A     79  63  57 SW13G18   29.80S
SMITHFIELD     SUNNY     79  57  47 NW7       29.79S
WESTERLY       SUNNY     82  61  48 SW8       29.78S
$$

CTZALL-010000-
CONNECTICUT

CITY           SKY/WX    TMP DP  RH WIND       PRES   REMARKS
BRADLEY INTL   MOSUNNY   84  55  36 NW5       29.78S
HARTFORD       SUNNY     86  55  34 NW6       29.77S
BRIDGEPORT     SUNNY     87  54  32 W9        29.78F
DANBURY        SUNNY     82  55  39 W6        29.82S
GROTON         SUNNY     82  61  48 W8        29.77S
NEW HAVEN      MOSUNNY   85  58  39 NW5       29.78F
CHESTER        NOT AVBL
MERIDEN        MOSUNNY   86  56  35 W3        29.78S
WILLIMANTIC    SUNNY     85  56  37 NW6       29.78S
OXFORD         SUNNY     81  57  44 NW6       29.85R
$$

MEZ002-015-021-024-NHZ003-005-008-011-012-014-VTZ005-008-010000-
NORTHERN NEW ENGLAND

CITY           SKY/WX    TMP DP  RH WIND       PRES   REMARKS
PORTLAND ME    MOSUNNY   81  54  39 W10       29.72S
BANGOR ME      PTCLDY    80  57  45 W7        29.68R
CONCORD NH     SUNNY     82  50  32 W7        29.76R
MANCHESTER NH  MOSUNNY   84  53  34 W8        29.75R
NASHUA NH      MOSUNNY   82  58  43 W5        29.77R
PORTSMOUTH NH  MOSUNNY   82  54  37 W7        29.73R
JAFFREY NH     MOSUNNY   78  56  46 VRB3      29.81S
KEENE NH       SUNNY     81  55  41 SW5       29.79R
BURLINGTON VT  MOSUNNY   82  54  37 W6        29.72F
MT. WASHINGTON PTSUNNY   48  46  93 W38         N/A
$$

NYZ052-076-010000-
EASTERN NEW YORK

CITY           SKY/WX    TMP DP  RH WIND       PRES   REMARKS
ALBANY         MOSUNNY   83  54  36 W8        29.78F
NEW YORK CITY  MOSUNNY   87  53  31 NW10      29.79S
$$

ANZALL-010000-
MARINE OBSERVATIONS

STATION/POSITION TIME  TEMP    WIND        PRES    VSBY  WAVE
                       AIR SEA DIR/SP/G                  HT/PER
                 (UTC) (F)     (DEG/KT/KT) (MB)    (MI)  (FT/S)
BOSTON BUOY      2250   77 71  270/ 10/ 12 1007.6R         2/ 9
BUZZARDS BAY     2200          230/ 17/ 18 1009.0F
NANTUCKET SOUND  2250   75 74  240/ 14/ 16 1007.8S         2/ 3
MASS BAY-STELLWA 2204   77 70  260/ 10/ 12   N/A    1 7/8  2/ 8
ISLE OF SHOALS   2200   82     290/ 14/ 15 1006.0F
S OF BLOCK IS    2208      75                N/A           4/ 7
$$

......................KEY.........................
  SKY/WX - SKY CONDITION/PRESENT WEATHER
  TMP    - TEMPERATURE IN FAHRENHEIT
  DWPT   - DEWPOINT IN FAHRENHEIT
  RH     - RELATIVE HUMIDITY IN PERCENT
  WIND   - DIRECTION AND SPEED IN MPH
  PRES   - MEAN SEA LEVEL PRESSURE IN INCHES OF HG
  WCI    - WIND CHILL INDEX
  VSB    - VISIBILITY IN MILES
  HX     - HEAT INDEX
  TC     - TEMPERATURE IN CELSIUS
  VRB    - VARIABLE WIND DIRECTION
  N/A    - NOT AVAILABLE


USA.gov is the U.S. government's official web portal to all federal, state and local government web resources and services.